www.pogodaiklimat.ru

Погода и климат >> Архив погоды >> Мексика >> Merida


АРХИВ ПОГОДЫ в Merida

Время (UTC), дата Ветер
(напр.,м/с)
 
Видим.   Явления Облачность Т
(С)
Тd
(С)
f
(%)
Тe
(С)
Тes
(С)
Комфортность P
(гПа)
Po
(гПа)
Тmin
(С)
Tmax
(С)
R
(мм)
R24
(мм)
S
(см)
09 14.06 В 2 5000 м 6/3 600 м
[Cu hum Ac trans]
+24.1 +22.8 92 +32 +32 очень
душно
1013.7 1012.4
12 14.06 ЮВ 2 10 км 9/1 600 м
[Cu hum Ac As]
+23.7 +22.5 93 +31 +31 очень
душно
1014.5 1013.3 +23.3 +34.3
15 14.06 В 3 10 км 9/6 600 м
[Sc diur, vesp As op]
+27.4 +24.4 84 +39 +40 очень
душно
1015.4 1014.1
18 14.06 СВ 3 10 км 9/6 600 м
[Cu hum Ac trans]
+32.0 +25.5 69 +47 +51 опасность
перегрева
1014.1 1012.9 +23.3 +32.5
21 14.06 В 2 10 км слабая морось {дождь} 8/8 600 м
[Sc]
+24.8 +24.0 95 +34 +36 очень
душно
1012.9 1011.6 2
00 15.06 ЮВ 3 10 км {дождь} 9/3 300 м
[Sc As op]
+26.2 +23.9 87 +36 +36 очень
душно
1013.3 1012.1 2
03 15.06 ЮВ 1 5000 м 4/0
[Ci fib]
+25.0 +23.3 90 +33 +33 очень
душно
1014.6 1013.4
06 15.06 Ю 1 5000 м 6/6 600 м
[Sc]
+24.4 +23.4 94 +33 +33 очень
душно
1015.1 1013.9 +23.3 +33.1
09 15.06 Ю 1 5000 м {морось} 5/1 600 м
[Cu hum Ac trans]
+23.9 +23.2 96 +32 +32 очень
душно
1014.1 1012.8 0.0
12 15.06 В 1 10 км {морось} 9/0 2000 м
[Ac As]
+23.3 +22.4 95 +32 +32 очень
душно
1013.2 1012.0
15 15.06 В 2 10 км 8/0 2000 м
[Ac trans]
+28.5 +24.4 79 +40 +47 очень
душно
1013.9 1012.6
18 15.06 ЮВ 4 10 км 10/4 600 м
[Cu hum Ac trans]
+29.3 +24.9 77 +42 +46 опасность
перегрева
1014.0 1012.8 +23.2 +29.5
21 15.06 ЮВ 3 10 км 9/6 600 м
[Cu hum Ac trans]
+30.0 +24.8 74 +43 +45 опасность
перегрева
1011.4 1010.1
00 16.06 В 3 10 км 9/6 300 м
[Sc Ac trans]
+27.8 +23.2 76 +37 +38 очень
душно
1011.0 1009.7 +23.2 +31.7
03 16.06 ЮВ 3 5000 м слабый дождь 10/10 600 м
[Sc]
+23.0 +22.7 98 +32 +32 очень
душно
1013.6 1012.3 18
06 16.06 В 1 5000 м слабая морось {дождь} 9/9 600 м
[Sc]
+23.6 +23.6 100 +32 +32 очень
душно
1013.2 1011.9 29
09 16.06 В 2 5000 м {морось} 9/9 600 м
[Sc]
+23.4 +23.3 99 +33 +33 очень
душно
1011.3 1010.0 2
12 16.06 В 1 10 км {дождь, морось} 10/9 600 м
[St Ac trans]
+23.3 +22.9 98 +33 +33 очень
душно
1010.4 1009.2 2
15 16.06 В 2 10 км 8/4 600 м
[Cu hum Ac trans Ci fib]
+26.3 +24.6 90 +37 +42 очень
душно
1012.3 1011.0
18 16.06 В 4 10 км 9/6 600 м
[Sc Ac trans]
+29.6 +26.1 82 +45 +48 опасность
перегрева
1012.3 1011.1 +23.3 +29.8
21 16.06 ЮВ 5 10 км слабый дождь 10/8 600 м
[Sc As op]
+25.8 +23.9 89 +35 +36 очень
душно
1011.5 1010.3 3
00 17.06 ЮВ 2 10 км слабая морось {дождь} 10/8 300 м
[Sc As op]
+24.2 +23.3 95 +32 +32 очень
душно
1011.9 1010.6 4
03 17.06 штиль 0 5000 м {морось} 4/4 600 м
[Sc]
+24.2 +23.9 98 +33 +33 очень
душно
1012.4 1011.1 1
06 17.06 В 1 5000 м {морось} 9/9 600 м
[Sc]
+24.7 +23.8 95 +34 +34 очень
душно
1013.3 1012.0 1
09 17.06 ЮВ 1 5000 м 8/8 600 м
[Sc]
+25.0 +24.4 96 +35 +35 очень
душно
1012.3 1011.1
12 17.06 В 2 10 км 10/10 600 м
[Sc]
+24.8 +24.7 99 +35 +35 очень
душно
1013.1 1011.8 +24.7 +30.2
15 17.06 В 2 10 км 10/10 600 м
[Sc]
+26.3 +25.7 97 +39 +39 очень
душно
1014.5 1013.4
18 17.06 В 5 10 км 9/5 600 м
[Cu hum Ac trans]
+28.7 +24.7 79 +41 +44 опасность
перегрева
1014.1 1012.9 +24.7 +29.1
21 17.06 ЮВ 4 10 км 9/5 600 м
[Sc Ac trans]
+27.2 +24.6 86 +39 +41 очень
душно
1013.3 1012.0 0.0
00 18.06 ЮВ 4 10 км слабый дождь {морось} 10/6 300 м
[Sc As op Cs]
+25.4 +24.5 95 +36 +36 очень
душно
1014.6 1013.3 2
03 18.06 ЮВ 1 5000 м {морось} 4/0
[Cs]
+24.0 +22.8 93 +32 +32 очень
душно
1015.0 1013.7 0.8
06 18.06 В 3 5000 м 10/10 600 м
[Sc]
+25.0 +24.3 96 +35 +35 очень
душно
1015.1 1013.8 +23.8 +29.1
09 18.06 В 2 5000 м слабая морось 10/10 600 м
[Sc]
+25.3 +24.7 96 +36 +36 очень
душно
1013.8 1012.6 0.1
12 18.06 ЮВ 2 10 км в посл. час морось 10/1 600 м
[Cu hum Ac As]
+25.2 +24.5 96 +35 +35 очень
душно
1014.3 1013.0 0.1
15 18.06 В 3 10 км 9/6 600 м
[Cu hum Ac trans]
+28.6 +25.8 85 +43 +45 опасность
перегрева
1014.7 1013.5
18 18.06 В 4 10 км 9/6 600 м
[Cu hum Ac trans]
+30.3 +27.3 84 +48 +52 опасность
перегрева
1014.4 1013.2 0.0
21 18.06 ЮВ 1 10 км слабая морось 9/6 600 м
[Sc As op]
+25.9 +24.9 94 +37 +39 очень
душно
1013.3 1012.0 1
00 19.06 ЮВ 1 10 км {морось} 9/0 2000 м
[As op Cs]
+27.2 +25.8 92 +40 +41 очень
душно
1013.0 1011.8 1
03 19.06 В 1 5000 м 4/0
[Ci fib]
+26.9 +25.6 93 +40 +40 очень
душно
1014.1 1012.8
06 19.06 В 2 5000 м {морось} 6/0 2000 м
[Ac As]
+26.0 +24.1 89 +36 +36 очень
душно
1014.6 1013.3 0.0
09 19.06 ЮВ 1 5000 м 8/1 600 м
[Cu hum Ac As]
+25.4 +24.4 94 +35 +35 очень
душно
1013.2 1011.9
12 19.06 ЮВ 1 10 км 9/1 600 м
[Cu hum Ac As]
+25.2 +24.6 96 +35 +35 очень
душно
1013.6 1012.3 +25.1 +30.7
15 19.06 В 3 10 км 9/8 600 м
[Cu med, cong Ac trans]
+29.2 +25.4 80 +43 +44 опасность
перегрева
1013.5 1012.2
18 19.06 В 5 10 км 8/4 600 м
[Cu hum Ac trans]
+32.3 +26.2 70 +48 +52 опасность
перегрева
1012.8 1011.5 +25.1 +32.6
21 19.06 ЮВ 4 10 км 8/4 600 м
[Cu hum Ac trans]
+34.1 +27.7 69 +54 +57 опасность
перегрева
1011.1 1009.8
00 20.06 В 2 10 км 9/0 2000 м
[Ac trans Ci fib]
+31.4 +24.0 65 +43 +43 опасность
перегрева
1011.3 1010.1 +25.1 +35.2
03 20.06 ЮВ 2 5000 м 6/0 2000 м
[Ac trans]
+28.4 +22.9 72 +38 +38 очень
душно
1012.8 1011.6
06 20.06 ЮВ 2 5000 м 6/0 2000 м
[Ac As]
+26.4 +23.7 85 +36 +36 очень
душно
1013.0 1011.8 +25.1 +35.2
09 20.06 В 2 5000 м 6/1 600 м
[Cu hum As op]
+25.2 +23.9 93 +35 +35 очень
душно
1011.2 1010.0
12 20.06 ЮВ 2 10 км 9/6 600 м
[St Ac trans]
+24.8 +23.7 94 +34 +34 очень
душно
1012.2 1011.0 +24.6 +35.2
15 20.06 В 3 10 км 8/8 600 м
[Cu hum]
+29.0 +26.2 85 +44 +46 опасность
перегрева
1013.0 1011.8
18 20.06 В 3 10 км 4/4 600 м
[Cu hum]
+32.8 +25.7 66 +48 +59 опасность
перегрева
1011.9 1010.7 +24.6 +33.4
21 20.06 ЮВ 2 10 км 6/4 600 м
[Cu hum Ac trans Ci fib]
+35.0 +27.6 66 +55 +61 опасность
перегрева
1010.7 1009.4
00 21.06 В 3 10 км 3/1 600 м
[Cu hum Ci fib]
+33.3 +26.7 68 +50 +51 опасность
перегрева
1010.0 1008.8 +24.6 +35.7
03 21.06 В 4 5000 м ясно +29.0 +25.5 81 +43 +43 опасность
перегрева
1011.5 1010.2
06 21.06 ЮВ 2 5000 м 1/0
[Ci fib]
+26.1 +23.9 88 +36 +36 очень
душно
1012.5 1011.2 +24.6 +35.7

 

Местоположение метеостанции Merida (Мексика): широта 20.98 долгота -89.65 высота над уровнем моря 9 м.

В архиве по умолчанию представлена погода в Merida за последнюю неделю. Архивные данные за месяц целиком и за предыдущие месяцы, начиная с января 2011 года, Вы можете получить, выбрав интересующий диапазон дат из раскрывающегося списка и нажав кнопку "Ввод!".


*Определитесь, кто Вы:
робот инопланетянин человек

Внимание! Время в таблицах - всемирное. Для получения местного времени необходимо прибавить поправку, которая в Merida равна -6 ч.

Смотрите также архив погоды в соседних городах и на ближайших метеорологических станциях:

Погода в Merida 2 (Мексика) (6 км)
Погода в Progreso (Мексика) (36 км)
Погода в Valladolid (Мексика) (154 км)
Погода в Campeche (Мексика) (157 км)
Погода в Felipe Carrillo Puerto (Мексика) (231 км)
Погода в Chetumal (Мексика) (312 км)
Погода в Belize (Белиз) (409 км)
Погода в Flores (Гватемала) (452 км)
Погода в Villahermosa (Мексика) (479 км)
Погода в Cabo San Antonio (Куба) (497 км)

Пояснения к столбцам:

Ветер - указаны скорость ветра в м/с - средняя за 10 мин, порывы в срок и между сроками (в фигурных скобках) и направление, откуда дует ветер: С - северный, СВ - северо-восточный, В - восточный, ЮВ - юго-восточный, Ю - южный, ЮЗ - юго-западный, З - западный, СЗ - северо-западный.
Видимость - горизонтальная дальность видимости в метрах или километрах. При видимости от 1 до 10 км при отсутствии осадков обычно наблюдается дымка, при ухудшении видимости до 1 км и менее - туман. В сухую погоду видимость может ухудшаться дымом, пылью или мглою.
Явления - указаны атмосферные явления, наблюдавшиеся в срок или в последний час перед сроком; фигурными скобками обозначены явления, наблюдавшиеся между сроками (за 1-3 часа до срока); квадратными скобками обозначены град или гололедные отложения с указанием их диаметра в мм.
Облачность - указаны через наклонную черту общая и нижняя облачность в баллах и высота нижней границы облаков в метрах; квадратными скобками обозначены формы облаков: Ci - перистые, Cs - перисто-слоистые, Cc - перисто-кучевые, Ac - высококучевые, As - высокослоистые, Sc - слоисто-кучевые, Ns - слоисто-дождевые, Cu - кучевые, Cb - кучево-дождевые. Подробнее классификацию облаков см. в Атласе облаков (PDF).
T - Температура воздуха - температура, измеренная на высоте 2 м над землей.
Td - Температура точки росы - температура, при понижении до которой содержащийся в воздухе водяной пар достигнет насыщения.
f - Относительная влажность воздуха - влажноcть воздуха, измеренная на высоте 2 м над землей.
Te - Эффективная температура - температура, которую ощущает одетый по сезону человек в тени. Характеристика душности погоды. При расчете учитывается влияние влажности воздуха и скорости ветра на теплоощущения человека.
Tes - Эффективная температура на солнце - температура, которую ощущает человек, с поправкой на солнечный нагрев. Характеристика знойности погоды. Зависит от высоты солнца над горизонтом, облачности и скорости ветра. Ночью, в пасмурную погоду, а также при ветре 12 м/с и более поправка равна нулю.
P - Атмосферное давление - приведенное к уровню моря атмосферное давление.
Po - Атмосферное давление - измеренное на уровне метеостанции атмосферное давление.
Tmin - Минимальная температура - минимум температуры воздуха на высоте 2 м над землей.
Tmax - Максимальная температура - максимум температуры воздуха на высоте 2 м над землей.
R - Количество осадков - Количество выпавших осадков за период времени, мм. При наведении курсора мыши на число - период времени, за который выпало указанное количество осадков.
R24 - Количество осадков - Количество выпавших осадков за 24 часа, мм.
S - Снежный покров - Высота снежного покрова, см. При наведении курсора мыши на число - состояние снежного покрова и степень покрытия местности в баллах.